Cloud_Cover
0 2 0 0 0 2 4 1 0 0 0 0 0 6 5 3 40 69 5 4 0 5 100 25 83 4 5 5 99 97 97 100 92 100 100 100 100 100 100 100 100 100 100 100
0 4 4 0 5 5 0 0 0 0 0 0 0 0 4 5 18 68 8 5 1 28 98 51 100 81 5 5 21 100 100 100 100 100 100 77 92 98 100 100 100 100 100 96
0 1 5 4 5 23 2 0 0 0 0 0 0 0 0 0 5 5 45 4 4 10 24 100 100 100 47 46 98 100 98 100 47 100 100 100 100 100 100 93 100 100 100 100
4 2 82 37 5 5 0 0 0 0 0 1 0 0 0 0 5 5 5 11 4 72 6 100 100 100 100 94 73 97 72 87 17 67 66 100 100 100 100 100 96 92 95 100
2 19 100 6 91 38 0 0 0 0 0 0 0 0 0 0 5 5 5 0 5 5 5 90 100 100 100 100 100 100 100 99 52 91 7 88 100 40 37 97 100 100 100 100
0 45 96 72 96 11 1 3 0 0 0 0 0 0 0 0 0 44 4 1 2 5 0 0 57 86 100 100 23 93 100 100 100 100 58 6 73 62 100 94 99 93 100 100
2 97 44 18 4 21 4 0 0 0 0 0 0 0 0 0 0 0 1 2 4 5 4 46 99 95 100 90 88 32 91 100 100 100 91 100 100 90 42 44 91 100 100 100
43 48 2 4 2 0 0 0 0 0 0 0 0 0 0 0 0 4 4 5 67 37 98 61 98 100 100 97 76 100 100 99 100 100 87 100 100 100 100 82 9 100 100 100
7 3 11 0 0 0 0 0 0 0 0 0 0 0 0 0 0 43 5 2 4 99 83 100 100 99 100 98 69 92 100 100 43 100 100 100 100 100 100 100 100 96 100 100
1 94 4 0 0 0 0 0 0 0 0 0 0 0 0 0 0 0 0 0 0 91 66 51 100 100 100 100 95 82 100 96 30 100 100 100 100 100 100 100 64 12 100 100
3 100 2 3 1 0 0 0 0 0 0 0 0 0 0 0 0 1 2 0 0 4 5 47 78 100 100 68 61 48 9 42 54 68 84 50 92 100 100 96 100 0 27 100
5 98 5 5 0 0 0 0 2 0 0 0 0 0 0 0 0 5 26 4 0 0 0 5 25 64 100 68 100 100 94 2 2 28 100 100 100 2 35 98 100 5 16 38
36 57 0 0 0 0 0 0 0 0 0 0 0 0 0 0 0 4 3 5 0 4 5 36 100 94 100 100 97 84 88 66 71 5 4 82 83 84 100 63 99 64 54 0
44 16 0 0 0 0 0 0 0 0 0 0 0 0 0 5 5 5 5 5 4 9 20 5 38 32 14 16 96 34 7 4 4 0 0 0 21 3 9 99 40 92 17 100
0 0 0 0 0 0 0 0 0 0 0 0 0 0 0 0 0 0 0 3 4 5 28 5 5 4 0 1 0 0 0 5 5 2 0 0 0 0 0 0 1 3 6 24
0 0 0 0 0 0 0 0 0 0 0 0 0 0 0 0 0 0 21 100 100 60 96 5 5 5 0 0 2 0 0 0 4 5 5 3 0 0 0 0 0 0 5 4
0 0 0 0 0 0 1 0 0 0 0 0 3 1 0 2 4 4 34 47 25 6 5 5 5 17 5 4 1 0 0 0 0 0 0 0 0 0 0 0 0 0 0 0
0 0 0 0 1 0 0 0 1 3 5 0 0 2 0 3 1 3 5 5 5 5 5 0 3 5 5 5 1 0 0 0 0 0 0 0 0 0 0 0 0 0 0 0
5 5 24 5 0 1 5 3 6 5 5 2 0 0 0 0 1 3 5 5 4 0 0 0 0 1 0 0 0 6 8 8 3 9 9 19 32 32 20 0 0 0 0 0
18 83 5 5 13 99 5 4 5 4 0 0 0 0 0 0 0 0 0 0 0 0 0 0 0 0 0 2 34 78 77 82 100 100 99 100 100 100 70 57 50 34 32 3
93 0 3 4 16 5 5 5 5 3 0 0 0 0 0 0 0 0 0 0 0 0 0 0 2 15 68 72 88 74 71 60 49 39 79 71 59 40 47 86 42 72 56 86
1 7 6 5 5 5 28 27 5 2 0 0 0 0 0 0 0 0 0 0 0 0 4 60 59 71 38 25 11 46 100 100 100 100 100 73 64 90 100 100 100 100 100 69
4 5 21 5 6 1 0 0 0 0 0 0 0 0 0 0 0 0 0 0 9 45 90 51 35 9 9 3 94 100 100 100 100 100 100 97 99 100 100 100 99 100 96 99
6 59 12 5 4 0 0 1 0 4 5 0 0 0 0 0 0 0 0 16 75 72 55 26 0 0 0 6 93 100 79 100 100 100 100 100 100 100 100 100 100 100 100 100
71 44 34 66 45 5 5 5 5 5 5 0 0 0 0 0 0 0 51 73 30 0 0 0 0 0 0 10 37 73 100 100 100 100 100 100 100 100 100 100 100 100 96 100
5 4 0 5 19 18 5 5 5 5 5 0 0 0 0 0 2 16 8 0 0 0 0 0 0 0 0 0 27 100 100 100 100 100 100 100 100 100 100 100 100 100 97 40